Temperature
17 17 17 17 16 16 16 16 16 15 15 15 15 15 15 15 15 15 15 15 15 15 15 14 14 14 14 14 14 14 14 14 13 13 13 13 13 13
17 17 17 16 16 16 16 16 16 15 15 15 15 15 15 15 15 15 15 15 14 14 14 14 14 14 14 14 14 14 14 13 13 13 13 13 13 13
17 16 16 16 16 16 16 16 15 15 15 15 15 14 14 14 14 14 14 14 14 14 14 14 14 14 14 13 13 13 13 13 13 13 13 13 12 12
17 16 16 16 16 16 16 15 15 15 15 15 15 14 14 14 14 14 14 14 13 13 13 13 13 13 13 13 13 13 13 13 12 12 12 12 12 12
17 16 16 16 16 16 16 15 15 15 14 14 14 14 14 14 14 14 13 13 13 13 13 13 13 13 13 12 12 12 12 12 12 12 12 12 12 12
16 16 16 16 16 16 15 15 15 14 14 14 14 13 13 13 13 13 13 13 13 13 13 12 12 12 12 12 12 12 12 12 12 11 11 11 11 11
16 16 16 16 16 15 15 15 14 14 14 14 14 13 13 13 13 13 13 12 12 12 12 12 12 12 12 12 12 11 11 11 11 11 11 11 11 10
16 16 16 15 15 15 15 15 14 14 14 14 13 13 13 13 13 13 12 12 12 12 12 12 12 12 12 11 11 11 11 11 11 11 11 10 10 10
16 15 15 15 15 15 14 14 14 14 13 13 13 13 13 13 13 12 12 12 12 12 12 12 11 11 11 11 11 11 11 10 10 10 10 10 10 10
15 15 15 15 15 14 14 14 14 13 13 13 13 13 13 13 13 12 12 12 12 11 11 11 11 11 11 11 11 10 10 10 10 10 10 10 9 9
15 14 14 14 14 14 14 13 13 13 13 13 13 13 13 12 12 12 12 11 11 11 11 11 11 11 10 10 10 10 10 10 10 10 9 9 9 9
14 14 14 14 14 14 13 13 13 13 13 13 13 12 12 12 12 12 12 11 11 11 11 11 10 10 10 10 10 10 10 10 9 9 9 9 9 9
14 14 14 14 13 13 13 13 13 13 12 12 12 12 12 12 12 11 11 11 11 11 11 10 10 10 10 10 10 10 10 9 9 9 9 9 9 9
14 14 14 13 13 13 13 13 12 12 12 12 12 12 11 11 11 11 11 11 11 11 10 10 10 10 10 10 9 9 9 9 9 9 9 9 9 8
13 13 13 13 13 12 12 12 12 12 11 11 11 11 11 11 11 10 10 10 10 10 10 10 10 10 10 9 9 9 9 9 9 9 9 8 8 8
13 13 12 12 12 12 12 12 11 11 11 11 11 11 10 10 10 10 10 10 10 10 10 10 9 9 9 9 9 9 9 9 9 9 8 8 8 8
12 12 12 12 11 11 11 11 11 11 10 10 10 10 10 10 10 10 10 10 9 9 9 9 9 9 9 9 9 9 9 9 8 8 8 8 8 8
12 12 12 11 11 11 11 11 10 10 10 10 10 10 10 9 9 9 9 9 9 9 9 9 9 9 9 9 9 9 8 8 8 8 8 8 8 8
11 11 11 11 11 11 11 10 10 10 10 9 9 9 9 9 9 9 9 9 9 9 8 8 8 8 8 8 8 8 8 8 8 8 8 8 8 8
10 10 10 10 10 10 10 10 10 10 9 9 9 9 9 9 8 8 8 8 8 8 8 8 8 8 8 8 8 8 8 8 8 8 8 8 8 8
10 10 10 10 10 10 10 10 9 9 9 9 9 9 8 8 8 8 8 8 8 8 8 8 8 8 7 7 7 8 8 8 8 8 8 8 8 8
10 10 10 10 9 9 9 9 9 9 9 9 8 8 8 8 8 8 8 7 7 7 7 7 7 7 7 7 7 7 8 8 8 8 8 8 7 7
10 10 9 9 9 9 9 8 8 8 8 8 8 8 8 8 7 7 7 7 7 7 7 7 7 7 7 7 7 7 7 7 7 8 8 7 7 7
Wind_Speed
3 2 2 2 1 2 2 3 3 2 3 2 1 1 2 3 2 3 3 3 3 4 4 4 5 5 5 5 4 4 3 3 4 4 4 4 4 5
3 2 2 1 1 1 2 2 2 3 3 2 2 1 1 2 1 2 3 3 3 3 3 3 4 4 4 4 4 3 3 2 2 2 2 2 3 3
3 3 3 2 1 1 1 1 2 2 3 2 1 1 1 1 1 1 2 2 2 3 3 3 3 3 4 4 4 4 3 2 2 2 1 1 1 2
3 3 2 2 1 1 1 1 2 2 2 2 1 1 1 2 1 1 1 1 2 2 2 2 2 3 3 3 4 4 3 3 2 2 1 1 2 2
3 3 3 2 2 2 1 1 2 1 1 2 2 1 1 1 0 0 0 0 1 1 2 2 3 3 4 4 4 4 4 3 3 2 1 1 1 1
3 3 3 3 3 3 2 2 2 1 1 2 1 1 1 1 1 1 1 1 1 1 1 2 3 3 4 4 5 5 4 4 3 2 2 1 1 1
2 3 3 3 4 3 3 3 2 2 2 2 2 1 1 1 2 2 2 1 1 1 0 1 2 2 3 5 6 6 5 5 4 3 3 2 1 1
3 3 2 2 2 3 4 4 5 4 4 3 3 3 4 4 3 3 2 1 2 2 2 1 2 1 3 4 5 6 7 6 6 5 5 4 3 2
4 3 2 1 2 2 3 3 3 5 6 5 4 5 4 5 4 4 3 3 3 3 2 2 1 2 4 5 6 6 7 8 8 7 6 5 4 3
4 4 3 2 2 3 2 2 2 3 4 4 5 6 5 5 6 6 5 3 0 1 3 2 2 2 3 5 7 7 8 8 8 8 8 7 6 5
3 3 3 3 3 4 3 3 2 3 3 3 4 4 4 5 5 3 3 3 1 2 2 2 2 1 1 2 6 8 9 9 9 8 8 8 8 7
2 2 3 3 3 5 4 4 3 3 2 2 2 2 2 2 4 5 5 4 2 2 3 2 2 2 1 2 2 5 6 7 9 9 8 8 8 6
3 3 3 3 3 4 4 3 4 3 2 2 1 1 1 1 1 3 4 5 4 3 3 3 2 2 2 2 2 3 5 5 6 7 8 9 9 8
4 4 3 4 3 3 3 2 2 2 1 1 1 1 1 2 2 2 3 4 5 5 5 5 3 4 3 2 2 2 2 5 5 5 6 7 8 10
3 4 4 4 3 2 2 2 2 1 1 1 2 2 2 2 1 0 0 1 1 2 3 5 3 3 3 4 3 2 2 3 4 4 4 5 6 6
2 2 3 2 1 0 0 0 1 2 2 2 2 2 1 0 1 1 1 1 1 3 3 3 4 4 3 3 4 3 3 3 3 4 4 4 6 8
3 2 1 1 1 0 0 1 0 0 1 1 1 1 1 1 2 1 2 1 2 3 3 2 3 4 4 4 3 4 4 3 4 4 3 4 5 7
5 3 3 3 3 3 2 2 1 2 2 2 1 1 2 2 2 2 2 2 3 3 3 3 1 0 2 3 6 6 5 5 4 4 4 5 6 6
4 4 3 3 3 3 3 3 2 2 2 2 2 2 1 1 1 2 2 2 3 3 4 3 2 3 3 5 5 8 7 5 4 4 5 5 6 6
3 4 4 4 4 4 3 3 2 2 1 1 2 2 2 1 1 2 2 3 3 3 3 3 3 5 6 6 5 5 9 6 5 6 5 4 4 5
4 4 4 3 3 3 4 3 3 2 2 2 2 2 2 1 2 2 2 3 3 3 4 5 6 7 4 2 3 4 5 9 9 6 5 3 3 3
4 4 3 3 3 3 3 3 2 2 2 2 1 2 2 2 2 3 2 3 3 4 5 4 3 2 1 3 5 6 5 4 6 9 9 9 5 5
3 3 3 2 2 2 2 3 3 2 2 2 1 2 2 2 2 2 2 3 3 3 3 3 2 2 3 4 5 5 5 5 3 2 4 8 11 11
Wind_Direction
187 180 189 214 202 197 177 170 173 210 245 253 269 270 171 161 180 179 189 193 199 213 218 218 213 216 220 218 213 213 226 240 240 236 239 242 244 241
176 167 192 208 212 215 199 194 180 185 224 236 232 251 164 158 185 186 198 195 206 209 204 199 202 209 211 208 198 196 200 208 213 213 232 238 231 239
188 181 201 192 197 224 203 189 192 182 210 260 251 240 170 183 168 193 190 180 206 208 202 200 202 206 201 189 180 176 169 164 166 174 165 175 196 205
190 181 208 193 202 229 209 210 209 200 193 236 256 225 221 212 197 205 174 190 196 206 188 191 189 190 182 174 165 158 152 146 137 128 135 150 150 156
186 184 201 179 215 237 215 217 227 219 192 195 235 249 263 203 149 241 199 124 177 176 171 191 189 182 180 176 172 167 157 148 145 145 147 148 154 172
186 193 200 196 206 216 217 221 214 216 206 187 218 251 259 236 161 201 281 295 259 197 179 187 196 211 209 198 190 181 173 167 164 162 156 154 160 157
202 213 212 196 189 198 205 210 199 208 209 202 218 241 243 217 221 211 216 236 265 242 219 223 196 221 234 221 211 201 193 191 191 188 182 177 180 182
210 233 232 213 218 217 213 204 195 197 208 209 217 226 236 226 217 201 184 165 249 238 175 239 187 227 244 228 221 215 210 208 210 209 205 202 195 187
197 207 229 236 213 224 228 227 229 223 206 200 209 224 222 219 204 201 194 187 213 213 161 219 211 231 241 232 222 218 220 222 222 221 219 217 212 206
193 196 197 211 220 201 204 221 247 245 229 214 217 227 226 219 204 202 200 191 247 197 155 189 222 233 240 237 232 225 225 229 231 228 221 221 221 223
211 198 190 203 225 191 179 203 249 279 270 243 234 229 216 199 180 160 160 156 219 241 194 172 207 227 251 250 244 234 228 229 229 229 225 225 225 225
230 221 202 200 206 183 182 190 222 254 274 301 293 280 238 210 193 188 185 180 181 229 217 175 184 157 256 273 241 236 233 237 230 228 229 229 224 214
217 221 229 213 187 180 184 202 228 229 224 221 246 280 315 284 236 215 192 181 184 221 205 169 177 174 186 243 272 229 220 226 228 232 236 233 226 211
215 221 221 206 188 188 196 220 204 173 154 159 213 248 260 271 265 238 209 204 209 214 202 172 176 186 179 199 249 259 232 227 216 220 231 235 233 229
214 212 191 180 181 203 221 205 165 154 162 181 218 242 243 240 235 259 308 287 287 261 212 191 179 183 183 197 211 215 228 240 218 221 223 223 225 220
196 194 178 161 157 190 81 169 170 175 179 208 235 252 268 240 219 209 209 194 240 290 285 236 209 187 203 216 207 217 206 216 227 229 226 230 232 224
157 119 103 118 163 268 286 273 220 141 203 232 233 239 249 243 245 224 197 185 214 248 272 271 251 226 213 207 220 230 226 232 228 215 213 233 240 230
148 164 182 187 195 201 207 226 226 223 228 222 220 221 232 237 240 231 208 207 227 245 253 251 228 311 326 274 222 221 228 232 235 219 207 220 242 239
153 180 189 193 198 197 201 207 218 225 214 203 211 223 227 235 236 236 229 230 238 247 253 240 212 206 239 268 262 219 219 235 228 226 223 220 235 242
185 192 199 200 199 200 204 209 217 210 191 198 204 215 217 215 231 246 241 237 242 247 255 246 226 221 229 243 255 259 231 221 221 229 233 232 247 257
194 202 203 200 202 202 201 204 200 197 198 197 211 219 218 214 244 256 256 254 245 246 249 252 249 248 240 234 272 275 265 238 225 220 216 219 240 248
187 193 201 204 204 200 197 195 191 193 200 203 222 231 228 217 231 244 246 248 247 249 255 265 276 267 219 236 252 261 270 279 259 248 227 211 201 215
187 187 192 199 197 191 186 177 175 189 199 208 228 244 240 241 246 245 246 246 251 261 268 276 287 272 252 247 255 259 266 269 270 272 268 255 244 247
Height
1541 1541 1541 1541 1541 1541 1541 1541 1542 1540 1540 1540 1539 1539 1539 1538 1538 1537 1537 1536 1535 1535 1534 1534 1534 1533 1533 1533 1533 1533 1533 1533 1533 1533 1533 1533 1533 1534
1539 1539 1539 1539 1539 1539 1539 1539 1539 1539 1537 1537 1537 1537 1536 1536 1536 1535 1534 1533 1533 1532 1532 1531 1531 1531 1531 1531 1530 1530 1530 1530 1530 1530 1529 1529 1529 1530
1536 1536 1537 1537 1536 1536 1536 1536 1536 1536 1535 1535 1535 1534 1534 1533 1533 1532 1531 1531 1530 1530 1529 1529 1529 1529 1528 1528 1528 1528 1527 1527 1527 1526 1526 1526 1526 1527
1534 1534 1534 1534 1534 1534 1533 1533 1533 1533 1533 1532 1532 1532 1531 1531 1530 1529 1529 1528 1528 1527 1527 1527 1526 1526 1526 1526 1526 1525 1525 1525 1525 1524 1524 1524 1524 1524
1532 1532 1531 1531 1531 1531 1531 1531 1531 1530 1530 1530 1529 1529 1528 1528 1527 1527 1526 1526 1526 1525 1525 1524 1524 1524 1524 1524 1524 1523 1523 1523 1523 1522 1522 1522 1521 1521
1530 1530 1529 1529 1528 1528 1528 1528 1528 1527 1527 1527 1526 1526 1525 1525 1525 1524 1523 1523 1523 1523 1523 1522 1522 1522 1522 1521 1521 1521 1521 1521 1521 1520 1520 1520 1519 1519
1527 1527 1527 1527 1526 1525 1525 1525 1525 1525 1524 1524 1523 1523 1522 1522 1521 1521 1521 1521 1520 1520 1520 1520 1520 1520 1520 1519 1519 1519 1519 1519 1519 1518 1518 1518 1518 1518
1525 1524 1524 1524 1523 1523 1522 1522 1522 1521 1521 1520 1519 1519 1519 1519 1518 1518 1518 1518 1517 1518 1518 1518 1518 1518 1518 1518 1517 1517 1517 1517 1517 1517 1516 1516 1516 1516
1521 1521 1521 1521 1520 1520 1520 1519 1519 1518 1518 1517 1516 1516 1516 1516 1516 1515 1515 1515 1515 1516 1516 1515 1516 1515 1516 1516 1516 1516 1516 1515 1515 1515 1515 1514 1514 1514
1518 1518 1518 1518 1517 1517 1516 1516 1515 1515 1514 1514 1513 1513 1513 1513 1513 1513 1513 1513 1513 1514 1514 1513 1513 1513 1514 1514 1514 1513 1513 1513 1513 1513 1512 1512 1512 1512
1514 1515 1515 1514 1514 1514 1513 1513 1512 1512 1512 1511 1510 1510 1510 1510 1510 1510 1509 1510 1510 1510 1511 1511 1510 1511 1511 1511 1511 1511 1511 1510 1510 1510 1510 1510 1510 1510
1511 1511 1511 1511 1511 1511 1510 1509 1509 1508 1508 1508 1508 1507 1507 1507 1506 1506 1506 1507 1507 1507 1508 1508 1508 1508 1508 1509 1509 1508 1508 1508 1507 1507 1507 1508 1507 1507
1507 1508 1507 1507 1507 1507 1507 1506 1506 1506 1505 1505 1505 1504 1504 1504 1503 1504 1504 1504 1504 1504 1505 1505 1505 1505 1506 1506 1506 1505 1505 1505 1504 1504 1505 1505 1505 1504
1504 1504 1504 1504 1504 1504 1504 1504 1504 1503 1503 1502 1502 1501 1501 1501 1501 1501 1501 1502 1502 1502 1503 1503 1502 1503 1502 1502 1502 1502 1502 1502 1502 1502 1502 1502 1502 1501
1500 1501 1501 1501 1501 1501 1501 1501 1501 1500 1500 1499 1499 1499 1499 1499 1499 1499 1499 1499 1500 1500 1500 1500 1500 1500 1500 1499 1499 1499 1498 1498 1499 1498 1498 1498 1498 1497
1497 1497 1498 1498 1498 1498 1498 1497 1497 1497 1497 1496 1496 1496 1496 1496 1496 1496 1496 1496 1496 1496 1497 1497 1497 1497 1496 1496 1496 1495 1495 1495 1494 1495 1494 1494 1494 1493
1493 1494 1494 1495 1495 1495 1494 1494 1494 1493 1493 1493 1494 1493 1493 1493 1493 1493 1493 1493 1493 1493 1493 1493 1494 1494 1493 1493 1492 1491 1491 1491 1491 1491 1490 1489 1489 1489
1489 1489 1489 1490 1490 1490 1491 1491 1491 1490 1490 1490 1490 1490 1490 1490 1490 1490 1490 1490 1490 1489 1489 1489 1489 1489 1489 1488 1488 1487 1487 1486 1486 1486 1486 1485 1484 1484
1484 1484 1485 1486 1486 1487 1487 1487 1487 1487 1487 1488 1488 1488 1488 1488 1487 1487 1487 1487 1486 1486 1486 1486 1485 1485 1484 1483 1483 1484 1483 1482 1482 1482 1481 1481 1480 1480
1479 1480 1480 1481 1482 1483 1483 1484 1484 1484 1484 1484 1485 1485 1485 1484 1484 1484 1484 1483 1483 1482 1482 1482 1482 1481 1480 1480 1479 1479 1479 1478 1477 1477 1476 1476 1475 1475
1475 1476 1476 1477 1478 1479 1480 1480 1481 1481 1481 1481 1482 1481 1481 1481 1481 1481 1481 1480 1480 1479 1478 1477 1477 1478 1477 1477 1476 1474 1474 1474 1473 1472 1472 1471 1470 1470
1471 1472 1473 1474 1474 1475 1476 1477 1477 1478 1478 1478 1478 1478 1478 1478 1478 1477 1477 1476 1475 1475 1474 1474 1474 1473 1473 1472 1470 1469 1469 1469 1468 1468 1467 1467 1465 1464
1468 1469 1470 1470 1471 1472 1473 1474 1474 1474 1475 1475 1475 1475 1475 1475 1474 1474 1473 1473 1472 1471 1470 1469 1469 1468 1467 1467 1466 1465 1464 1464 1463 1462 1462 1461 1461 1461